Weather Roundup
Issued by NWS

Home | Current Version | Previous Version | Graphics & Text | Print | Product List | Glossary Off
Versions: 1 2 3 4 5 6 7 8 9 10 11 12 13 14 15 16 17 18 19 20 21 22 23 24 25 26 27 28 29 30 31 32 33 34 35 36 37 38 39 40 41 42 43 44 45 46 47 48 49 50

000
NZUS93 KARX 191959
HRRWXR

CURRENT HOURLY OBSERVATIONS ACROSS
MUCH OF THE UPPER MISSISSIPPI VALLEY
NATIONAL WEATHER SERVICE LA CROSSE WI
300 PM CDT FRI SEP 19 2014


...SOUTHEAST MINNESOTA...


CITY           SKY/WX    TMP DP  RH WIND       PRES   REMARKS
ROCHESTER      SUNNY     75  59  57 S31G41    29.77F
ROCHESTER/MAYO FAIR      75  56  52 S21G37    29.77F
WINONA         SUNNY     77  59  53 S9G22     29.79F
AUSTIN         SUNNY     75  63  64 S26G37    29.77F
ALBERT LEA     SUNNY     81  63  54 S24G30    29.74F
DODGE CENTER   SUNNY     75  63  64 S29G39    29.74F
PRESTON        SUNNY     73  63  70 S28G39    29.82F
OWATONNA       SUNNY     81  61  50 S25G35    29.70F
FARIBAULT      SUNNY     84  57  39 S13G36    29.69F
$$

...ELSEWHERE IN MINNESOTA...


CITY           SKY/WX    TMP DP  RH WIND       PRES   REMARKS
MINNEAPOLIS    PTSUNNY   78  61  55 S14G22    29.69F
INTNL FALLS    LGT RAIN  62  60  93 S8        29.56F
DULUTH         LGT RAIN  62  56  80 SW14      29.69S
RED WING       MOSUNNY   81  57  44 S18G24    29.71F
REDWOOD FALLS  PTSUNNY   77  64  64 SW7       29.67F
MANKATO        SUNNY     82  63  51 S22G30    29.68F
WORTHINGTON    MOSUNNY   81  64  57 SW22G28   29.71F
FAIRMONT       SUNNY     82  61  47 S21G35    29.69F
$$

...SOUTHWEST WISCONSIN...


CITY           SKY/WX    TMP DP  RH WIND       PRES   REMARKS
LA CROSSE      SUNNY     76  56  49 S24G33    29.83F
PRAIRIE DU CHI MOSUNNY   74  52  44 S12G17    29.93F
BOSCOBEL       SUNNY     76  54  46 S13G25    29.93F
LONE ROCK      NOT AVBL
PLATTEVILLE    SUNNY     73  53  48 S17G28    29.99F
FORT MC COY    NOT AVBL
VIROQUA        FAIR      72  54  53 S21G30    29.91F
WIS DELLS      SUNNY     73  49  43 S23G29    29.94F
$$

...ELSEWHERE IN WISCONSIN...


CITY           SKY/WX    TMP DP  RH WIND       PRES   REMARKS
MILWAUKEE      MOSUNNY   73  48  41 S16G29    30.02F
MADISON        PTSUNNY   73  50  44 S22G28    29.97F
GREEN BAY      MOSUNNY   72  50  45 S20G32    29.92F
EAU CLAIRE     SUNNY     73  56  54 S23G30    29.74F
BLACK RVR FLS  FAIR      74  52  47 S16G26    29.85F
MEDFORD        PTSUNNY   68  53  59 S23G32    29.84F
WAUSAU         PTSUNNY   70  52  52 S22G36    29.86F
WIS RAPIDS     MOSUNNY   72  52  49 S23G36    29.89F
MARSHFIELD     PTSUNNY   71  54  54 S24G32    29.85F
RICE LAKE      PTSUNNY   70  56  62 S13G25    29.74F
$$

...NORTHEAST IOWA...


CITY           SKY/WX    TMP DP  RH WIND       PRES   REMARKS
WATERLOO       MOSUNNY   76  59  55 S24G31    29.87F
DUBUQUE        SUNNY     72  53  51 S20G26    29.97F
DECORAH        MOSUNNY   73  57  56 S23G31    29.87F
MASON CITY     SUNNY     79  63  57 S25G35    29.81F
CHARLES CITY   MOSUNNY   77  61  57 S22G31    29.85F
OELWEIN        CLOUDY    73  57  56 S22G32    29.92F
$$

...ELSEWHERE IN IOWA...


CITY           SKY/WX    TMP DP  RH WIND       PRES   REMARKS
DES MOINES     PTSUNNY   80  65  59 S17       29.89F
IOWA CITY      SUNNY     74  58  57 S16G23    29.98F
FORT DODGE     SUNNY     81  66  61 S22G30    29.82F
MARSHALLTOWN   SUNNY     77  61  57 S21G30    29.88F
CEDAR RAPIDS   SUNNY     74  58  57 S21G28    29.95F
$$

...NORTHERN ILLINOIS...


CITY           SKY/WX    TMP DP  RH WIND       PRES   REMARKS
CHICAGO-OHARE  MOSUNNY   75  45  34 S16       30.05F
DUPAGE         SUNNY     75  47  36 S15       30.05F
CHICAGO-MIDWAY MOSUNNY   75  44  33 S15G22    30.06F
MOLINE         SUNNY     76  52  43 S14G24    30.00F
ROCKFORD       PTSUNNY   75  49  39 S20G31    30.03F
STERLING       SUNNY     75  52  43 SW5       30.02F
PEORIA         SUNNY     78  53  41 S10G17    30.03F
$$

NOTE: "FAIR" INDICATES FEW OR NO CLOUDS BELOW 12,000 FEET WITH NO
SIGNIFICANT WEATHER AND/OR OBSTRUCTIONS TO VISIBILITY. WIND
SPEEDS ARE IN MILES-PER-HOUR.



USA.gov is the U.S. government's official web portal to all federal, state and local government web resources and services.